Location: Oberkirch
(48.5323°N, 8.0787°E)
Time: 15:24:21
(UTC+00:00)

Tiros 1 despin weight - Pass Details

Date: 09 February 2026
Orbit: 556 x 593 km, 48.2° (Epoch: 5 March)

Event Time Altitude Azimuth Distance (km) Brightness Sun altitude
Rises 20:05:21 0° 263° (W) 2,733 ? -34.3°
Reaches altitude 10° 20:07:35 10° 263° (W) 1,841 ? -34.6°
Enters shadow 20:08:13 14° 263° (W) 1,594 ? -34.7°
